TimeCST,TemperatureF,Dew PointF,Humidity,Sea Level PressureIn,VisibilityMPH,Wind Direction,Wind SpeedMPH,Gust SpeedMPH,PrecipitationIn,Events,Conditions,WindDirDegrees,DateUTC
12:56 AM,-6.0,-15.0,65,30.21,-9999.0,West,5.8,-,N/A,,Unknown,270,2013-01-21 06:56:00
1:56 AM,-7.1,-17.0,62,30.21,-9999.0,Variable,5.8,-,N/A,,Unknown,0,2013-01-21 07:56:00
2:56 AM,-9.0,-18.9,62,30.21,-9999.0,West,3.5,-,N/A,,Unknown,280,2013-01-21 08:56:00
3:56 AM,-9.9,-22.0,55,30.21,-9999.0,Variable,3.5,-,N/A,,Unknown,0,2013-01-21 09:56:00
4:56 AM,-11.0,-20.9,62,30.22,-9999.0,Variable,3.5,-,N/A,,Unknown,0,2013-01-21 10:56:00
5:56 AM,-13.0,-23.1,61,30.22,-9999.0,Variable,6.9,-,N/A,,Unknown,0,2013-01-21 11:56:00
6:56 AM,-14.1,-24.0,61,30.20,-9999.0,Variable,6.9,-,N/A,,Unknown,0,2013-01-21 12:56:00
7:56 AM,-15.0,-29.0,49,30.19,-9999.0,NNW,13.8,36.8,N/A,,Unknown,330,2013-01-21 13:56:00
8:56 AM,-15.0,-29.0,49,30.25,-9999.0,West,8.1,-,N/A,,Unknown,270,2013-01-21 14:56:00
9:56 AM,-15.0,-29.0,49,30.28,-9999.0,Variable,6.9,-,N/A,,Unknown,0,2013-01-21 15:56:00
10:56 AM,-14.1,-29.0,47,30.28,-9999.0,Variable,6.9,20.7,N/A,,Unknown,0,2013-01-21 16:56:00
11:56 AM,-13.0,-27.9,47,30.26,-9999.0,NW,9.2,21.9,N/A,,Unknown,310,2013-01-21 17:56:00
12:56 PM,-11.9,-26.0,50,30.26,-9999.0,West,9.2,-,N/A,,Unknown,270,2013-01-21 18:56:00
1:56 PM,-11.9,-27.9,45,30.25,-9999.0,Variable,6.9,-,N/A,,Unknown,0,2013-01-21 19:56:00
2:56 PM,-11.9,-27.0,47,30.26,-9999.0,Variable,6.9,-,N/A,,Unknown,0,2013-01-21 20:56:00
3:56 PM,-11.0,-24.0,53,30.27,-9999.0,West,4.6,-,N/A,,Unknown,280,2013-01-21 21:56:00
4:56 PM,-11.0,-22.0,58,30.28,-9999.0,Variable,4.6,-,N/A,,Unknown,0,2013-01-21 22:56:00
5:56 PM,-11.9,-23.1,58,30.29,-9999.0,WSW,5.8,-,N/A,,Unknown,240,2013-01-21 23:56:00
6:56 PM,-11.9,-23.1,58,30.29,-9999.0,SW,4.6,-,N/A,,Unknown,230,2013-01-22 00:56:00
7:56 PM,-11.9,-22.0,61,30.29,-9999.0,Calm,Calm,-,N/A,,Unknown,0,2013-01-22 01:56:00
8:56 PM,-9.9,-20.0,61,30.27,-9999.0,Variable,5.8,-,N/A,,Unknown,0,2013-01-22 02:56:00
9:56 PM,-11.0,-22.0,58,30.29,-9999.0,South,3.5,-,N/A,,Unknown,170,2013-01-22 03:56:00
10:56 PM,-11.0,-23.1,55,30.30,-9999.0,Variable,4.6,-,N/A,,Unknown,0,2013-01-22 04:56:00
11:56 PM,-11.0,-24.0,53,30.31,-9999.0,NNW,3.5,-,N/A,,Unknown,340,2013-01-22 05:56:00